Missoula, Montana, United States (59801)
Lat: 46.87N, Lon: 113.99W
Wx Zone: MTZ005
Local Info
Past Weather Observations for Today

NOTE: This archive is for the closest National Weather Service station to Missoula. Information may differ from the station used for current weather conditions.

Click here for Long-term Archive

Time Weather Temperature Dewpoint Humidity Pressure Winds Precip Visibility
14:41
Overcast
Light Rain
36°F / 2°C 36°F / 2°C 100% 30.15 in
(1021 mb)
SSW 5.8 mph
(SSW 9 kph)
0.01 in
(0.25 mm)
10SM
13:53
Overcast
Light Rain
36°F / 2°C 34°F / 1°C 93% 30.12 in
(1020 mb)
NW 6.9 mph
(NW 11 kph)
0.03 in
(0.76 mm)
6SM
12:53
Overcast
Light Rain
37°F / 3°C 34°F / 1°C 87% 30.12 in
(1020 mb)
N 11.5 mph
(N 19 kph)
0.07 in
(1.78 mm)
5SM
11:53
Overcast
Light Rain
36°F / 2°C 34°F / 1°C 93% 30.09 in
(1019 mb)
Variable 3.5 mph
(Variable 6 kph)
0.06 in
(1.52 mm)
3SM
11:45
Overcast
Rain
34°F / 1°C 34°F / 1°C 100% 30.09 in
(1019 mb)
NNW 4.6 mph
(NNW 7 kph)
0.05 in
(1.27 mm)
2 1/2SM
11:29
Overcast
Light Rain
34°F / 1°C 34°F / 1°C 100% 30.09 in
(1019 mb)
Calm 0.02 in
(0.51 mm)
3SM
10:53
Overcast
Light Rain
34°F / 1°C 34°F / 1°C 100% 30.09 in
(1019 mb)
Calm 0.03 in
(0.76 mm)
5SM
10:38
Overcast
Light Rain
34°F / 1°C 34°F / 1°C 100% 30.09 in
(1019 mb)
Calm 0.02 in
(0.51 mm)
4SM
10:19
Overcast
Light Rain
34°F / 1°C 34°F / 1°C 100% 30.09 in
(1019 mb)
Calm 0.01 in
(0.25 mm)
2 1/2SM
09:53
Overcast
Unknown Precip
34°F / 1°C 34°F / 1°C 100% 30.06 in
(1018 mb)
Calm 0.04 in
(1.02 mm)
2SM
08:53
Overcast
Unknown Precip
32°F / 0°C 32°F / 0°C 100% 30.06 in
(1018 mb)
Calm 0.01 in
(0.25 mm)
2SM
08:40
Overcast
Unknown Precip
32°F / 0°C 32°F / 0°C 100% 30.04 in
(1017 mb)
Calm 0.01 in
(0.25 mm)
2SM
08:07
Overcast
Unknown Precip
32°F / 0°C 32°F / 0°C 100% 30.04 in
(1017 mb)
Calm 0.00 in
(0.00 mm)
2SM
08:00
Overcast
Unknown Precip
32°F / 0°C 32°F / 0°C 100% 30.04 in
(1017 mb)
Calm 0.00 in
(0.00 mm)
2SM
07:53
Overcast
Unknown Precip
32°F / 0°C 32°F / 0°C 100% 30.04 in
(1017 mb)
SSW 3.5 mph
(SSW 6 kph)
0.01 in
(0.25 mm)
3SM
07:50
Overcast
Unknown Precip
32°F / 0°C 32°F / 0°C 100% 30.04 in
(1017 mb)
Calm 0.01 in
(0.25 mm)
3SM
07:41
Overcast
Unknown Precip
32°F / 0°C 32°F / 0°C 100% 30.04 in
(1017 mb)
Calm 0.00 in
(0.00 mm)
2 1/2SM
07:16
Overcast
Unknown Precip
32°F / 0°C 32°F / 0°C 100% 30.04 in
(1017 mb)
Calm 0.00 in
(0.00 mm)
2SM
07:03
Overcast
Unknown Precip
32°F / 0°C 32°F / 0°C 100% 30.01 in
(1016 mb)
Calm 0.00 in
(0.00 mm)
2SM
06:53
Overcast
Unknown Precip
32°F / 0°C 32°F / 0°C 100% 30.01 in
(1016 mb)
SW 3.5 mph
(SW 6 kph)
0.01 in
(0.25 mm)
3SM
06:06
Overcast
Unknown Precip
32°F / 0°C 32°F / 0°C 100% 30.01 in
(1016 mb)
Calm 0.00 in
(0.00 mm)
8SM
05:53
Overcast
Unknown Precip
32°F / 0°C 32°F / 0°C 100% 30.01 in
(1016 mb)
Calm 0.02 in
(0.51 mm)
8SM
04:53
Overcast
Light Snow
32°F / 0°C 32°F / 0°C 100% 30.01 in
(1016 mb)
WNW 5.8 mph
(WNW 9 kph)
0.00 in
(0.00 mm)
5SM
04:41
Overcast
Light Snow
32°F / 0°C 32°F / 0°C 100% 30.01 in
(1016 mb)
WNW 5.8 mph
(WNW 9 kph)
0.00 in
(0.00 mm)
4SM
03:53
Overcast
30°F / -1°C 30°F / -1°C 100% 30.01 in
(1016 mb)
W 4.6 mph
(W 7 kph)
0.01 in
(0.25 mm)
8SM
02:53
Overcast
Light Snow
32°F / 0°C 30°F / -1°C 93% 30.04 in
(1017 mb)
NW 3.5 mph
(NW 6 kph)
0.00 in
(0.00 mm)
6SM
01:53
Overcast
30°F / -1°C 30°F / -1°C 100% 30.04 in
(1017 mb)
E 3.5 mph
(E 6 kph)
- 10SM
00:53
Overcast
36°F / 2°C 28°F / -2°C 75% 30.06 in
(1018 mb)
SE 8.1 mph
(SE 13 kph)
- 10SM
Time Weather Temperature Dewpoint Humidity Pressure Winds Precip Visibility


Weather for websites

WeatherForYou.com, LLC is not responsible for any damages or problems caused by this service. Current weather conditions are obtained from the closest station including government and personal stations which may have varying degrees of accuracy. Weather forecasts are derived from the NOAA NDFD. Like all things, this site belongs to Jesus Christ... He just trusts me to maintain it. If you have any questions or comments email webmaster@weatherforyou.com

Copyright © 2014, WeatherForYou.com LLC. All rights reserved.